IRIDIUM 180

Last updated on Fri Sep 11 2026 00:03:06 GMT+0000 (Coordinated Universal Time)

1 43922U 19002A 26252.90471093 .00000160 00000+0 50181-4 0 9997 2 43922 86.3990 318.2047 0002222 95.6027 264.5422 14.34218328401139
UTC large
Height (km)
Speed (km/s)
/
Latitude / Longitude
Inclination (degrees)
Orbital Period (minutes)
Azimuth
Elevation
Range (km)
Doppler Factor

Next 0 passes for location: London (51.5072 / 0.1276)

No passes found over London.
IRIDIUM 180